Flag Weather past 2 weeks in Landsberg am Lech, Bavaria, Germany

Now
37 °F

Chilly.


Feels Like: 34 °F
Forecast: 35 / 48 °F
Wind: 5 mph from Northeast

Location: Landsberg

Current Time: Nov 27, 2014 at 5:51:50 AM

Latest Report: Nov 27, 2014 at 5:20 AM


Visibility: 0 mi

Pressure: 29.83 "Hg

Humidity: 100%

Dew point: 37 °F

Location of Landsberg am LechLocation

Historic Weather in Landsberg am Lech — Graph

°F

Landsberg am Lech temperature yesterday

Maximum temperature yesterday: 37 °F (at 10:20 AM)
Minimum temperature yesterday: 36 °F (at 12:20 AM)
Average temperature yesterday: 37 °F

Past Weeks' High & Low Weather Summary

 TemperatureHumidityPressure
High54 °F (Nov 24, 12:20 PM)100% (Nov 12, 5:20 AM)30.27 "Hg (Nov 12, 5:20 AM)
Low30 °F (Nov 17, 3:56 AM)62% (Nov 16, 12:20 PM)29.50 "Hg (Nov 15, 9:20 PM)
Average41 °F95%29.94 "Hg
* Reported Nov 12 4:20 AM — Nov 27 4:20 AM, Landsberg am Lech, Weather by CustomWeather, © 2014

Note: Actual official high and low records may vary slightly from our data, if they occured in-between our weather recording intervals... More about our weather records

Advertising

Landsberg am Lech weather history for previous 24 hours

 ConditionsComfort  
Time TempWeatherWind HumidityBarometerVisibility
4:20 AM
Nov 27
37 °FChilly.2 mph100%29.86 "Hg0 mi
3:20 AM37 °FChilly.2 mph93%29.86 "Hg0 mi
2:20 AM36 °FChilly.5 mph100%29.89 "Hg0 mi
1:20 AM36 °FChilly.3 mph100%29.89 "Hg0 mi
12:20 AM37 °FChilly.5 mph93%29.92 "Hg0 mi
11:20 PM
Nov 26
37 °FChilly.5 mph100%29.92 "Hg0 mi
10:20 PM37 °FChilly.5 mph100%29.92 "Hg0 mi
9:20 PM37 °FChilly.6 mph100%29.92 "Hg0 mi
8:20 PM37 °FDrizzle. Fog.6 mph100%29.95 "Hg0 mi
7:20 PM37 °FDrizzle. Fog.5 mph100%29.95 "Hg1 mi
6:20 PM37 °FDrizzle. Fog.5 mph100%29.95 "Hg1 mi
5:20 PM37 °FFog.7 mph100%29.95 "Hg0 mi
4:20 PM37 °FFog.7 mph100%29.95 "Hg1 mi
4:02 PM37 °FFog.8 mph100%29.95 "Hg1 mi
3:20 PM37 °FDrizzle. Fog.7 mph100%29.95 "Hg1 mi
2:20 PM37 °FFog.6 mph100%29.98 "Hg2 mi
1:20 PM37 °FFog.6 mph100%29.98 "Hg1 mi
12:46 PM37 °FFog.6 mph100%29.98 "Hg1 mi
12:20 PM37 °FFog.5 mph100%30.01 "Hg1 mi
11:20 AM37 °FFog.7 mph100%30.01 "Hg1 mi
10:20 AM37 °FFog.7 mph100%30.01 "Hg1 mi
9:20 AM36 °FFog.6 mph100%30.01 "Hg0 mi
8:20 AM36 °FFog.6 mph100%30.01 "Hg0 mi
7:20 AM36 °FFog.6 mph100%30.01 "Hg0 mi
6:57 AM36 °FFog.5 mph100%30.01 "Hg1 mi
6:20 AM36 °FFog.5 mph100%30.01 "Hg1 mi
5:20 AM36 °FFog.6 mph100%30.04 "Hg1 mi
Weather by CustomWeather, © 2014

See weather overviewHow to use our weather pages